GFSNE_925_spd_060.txt.gz
Wind_Speed
30 28 28 25 23 22 20 18 12 3 3 6 7 7 11 15 13 15 18 19 19 18 19 22 26 28 34 40 41 41 39 36 32 29 25 23 21 21
27 26 24 24 23 21 19 15 14 11 3 12 9 11 15 17 17 17 17 17 17 22 23 24 27 30 32 38 42 44 44 40 32 33 28 25 24 24
25 24 24 24 23 21 18 15 14 13 8 5 10 14 16 17 18 16 17 19 21 22 23 26 26 28 30 33 36 41 43 44 40 38 33 28 26 26
26 26 26 25 25 21 18 17 13 12 9 8 7 14 16 17 17 18 19 20 22 23 24 26 28 30 31 32 34 36 39 44 46 42 34 31 27 27
31 29 29 28 24 21 18 15 11 9 6 5 6 10 14 16 16 19 21 24 25 28 30 31 33 34 34 36 37 37 38 41 45 46 51 37 30 29
26 28 28 26 26 23 20 14 10 5 4 5 7 9 11 16 20 20 24 26 30 33 32 28 31 33 34 35 36 38 38 40 40 44 39 34 28 30
26 24 22 21 19 20 19 14 9 6 4 4 8 11 16 16 17 17 23 25 26 26 19 23 26 30 35 35 36 34 33 32 32 35 34 26 27 29
24 21 18 19 19 17 14 10 7 5 4 6 10 12 16 16 18 21 23 16 8 12 21 34 30 32 33 32 32 33 34 30 26 25 22 27 22 27
22 22 22 19 17 15 11 7 5 6 8 8 10 12 13 14 18 22 20 18 19 26 24 30 24 28 30 31 31 32 30 23 24 23 21 20 23 24
21 25 24 19 15 12 8 5 5 5 6 6 8 11 13 16 17 18 20 22 24 22 20 21 23 27 31 33 31 29 26 26 28 28 15 20 20 21
21 20 18 15 10 7 6 4 4 4 4 5 7 9 11 13 14 16 14 16 21 20 18 21 21 22 26 30 27 26 21 15 11 11 17 18 17 17
18 15 12 9 5 4 4 3 2 4 8 11 11 11 12 11 11 11 14 15 17 16 7 9 20 15 10 21 21 19 17 17 16 16 14 14 15 17
17 13 9 5 3 3 2 1 1 5 9 11 13 13 13 14 14 14 13 14 18 20 29 22 24 19 12 16 18 16 12 14 14 13 14 14 15 16
15 11 7 5 6 6 4 2 2 5 9 11 12 11 12 13 17 18 17 18 20 27 32 29 20 17 16 14 9 8 8 14 13 14 14 13 13 13
11 8 8 8 8 6 2 1 4 6 9 10 9 10 12 16 17 17 17 20 24 24 22 23 27 27 21 16 7 9 10 17 16 15 14 11 13 15
10 8 7 7 5 3 1 3 5 7 7 7 10 12 14 14 16 14 19 21 23 24 26 17 19 26 19 20 18 12 16 9 11 14 13 13 14 13
9 8 8 5 3 2 1 3 6 7 7 9 11 13 13 15 15 15 18 18 16 20 26 29 19 21 19 18 13 17 19 19 18 16 15 14 14 13
7 7 5 3 2 1 2 4 7 7 7 10 13 12 13 15 15 17 15 16 18 19 22 24 26 19 15 15 20 17 17 18 18 16 13 13 14 12
6 5 4 2 2 2 3 4 6 7 12 12 14 12 13 15 15 17 16 16 18 20 22 23 21 21 6 5 6 15 20 19 18 15 13 13 13 13
4 6 5 4 3 3 4 6 8 10 13 14 15 14 16 16 15 15 15 16 18 22 22 19 18 17 15 7 5 12 17 17 15 14 12 11 11 8
5 4 4 4 4 5 7 9 10 13 15 16 15 14 17 15 16 17 16 17 21 18 20 20 22 25 25 17 7 7 12 14 16 15 10 8 5 5
2 2 3 4 5 7 8 10 13 15 15 15 15 17 15 15 17 18 17 17 17 18 21 24 25 22 20 15 10 9 11 12 12 11 12 13 7 3
0 1 4 6 7 9 11 13 14 16 17 17 17 15 14 17 17 16 18 19 17 19 20 22 23 20 17 21 14 11 10 12 10 9 11 8 11 15

GFSNE_925_spd_063.txt.gz
Wind_Speed
32 26 25 25 24 26 25 22 16 4 7 12 9 13 14 10 10 10 11 15 16 16 16 17 20 23 27 30 31 33 34 37 40 39 39 37 34 32
29 27 27 30 28 25 26 25 22 14 5 11 12 11 12 12 12 11 12 14 14 15 18 21 22 24 25 27 30 32 35 37 38 40 40 39 38 34
29 29 29 30 29 27 26 20 17 20 11 5 13 14 16 15 13 11 11 12 12 16 17 19 22 24 27 29 31 32 34 35 36 37 38 38 39 37
30 27 29 30 27 27 27 24 20 20 13 11 12 14 14 10 10 10 8 9 12 17 21 24 26 27 29 31 32 35 37 37 37 37 37 37 41 39
31 29 33 31 26 29 28 24 20 17 12 9 9 8 11 6 6 7 10 12 15 19 20 21 21 20 22 25 28 31 34 35 35 37 36 37 38 40
34 32 32 31 31 29 28 25 17 17 14 9 9 8 8 7 7 9 11 10 15 16 17 14 16 19 21 24 26 26 30 35 32 31 31 33 36 37
32 29 29 29 30 28 29 25 22 19 14 10 7 5 7 8 8 7 11 13 15 15 10 11 17 20 19 21 23 25 26 26 28 28 28 27 29 31
31 25 24 21 21 22 22 20 19 15 13 7 7 6 8 9 7 9 11 11 7 6 12 23 19 21 20 20 23 27 25 24 25 22 22 21 23 22
28 27 25 24 24 23 21 20 15 12 8 9 9 6 7 6 7 10 11 12 15 18 19 22 16 23 20 21 24 27 24 23 21 19 19 21 21 17
25 27 29 28 25 24 22 17 11 6 7 7 7 5 6 7 8 11 14 16 16 16 14 16 18 23 21 22 24 23 22 21 19 20 21 23 16 12
24 26 27 26 23 20 17 13 9 7 7 6 6 6 8 10 10 9 11 12 13 13 17 18 15 22 25 27 18 19 21 20 17 13 11 11 9 12
22 21 22 21 18 14 11 10 11 9 6 3 3 4 6 5 7 6 8 11 13 11 2 9 18 19 12 19 14 21 18 18 14 13 12 11 13 11
27 22 18 14 11 10 10 9 8 8 4 2 2 3 3 4 6 6 9 10 14 18 17 13 17 23 20 27 27 20 20 16 13 13 12 13 12 11
23 20 16 14 13 13 10 9 7 4 1 1 3 2 4 5 7 10 12 13 16 22 24 20 21 22 25 25 23 21 17 12 9 10 10 10 12 13
20 18 18 17 15 11 8 5 3 0 1 2 2 3 5 8 11 12 13 14 18 20 22 20 21 26 27 28 26 19 16 13 13 13 11 11 11 10
21 20 16 12 9 9 6 2 1 0 1 2 4 6 7 8 10 11 14 15 18 19 14 19 18 20 25 23 22 18 17 12 12 16 15 12 10 13
16 14 11 9 7 5 3 2 1 1 2 4 6 8 9 10 11 11 12 15 17 20 20 17 18 20 22 23 21 18 17 18 18 14 11 13 13 13
10 9 7 5 4 4 3 2 2 3 4 6 8 9 11 11 13 13 13 14 17 18 21 20 20 21 19 17 22 20 18 18 17 16 14 13 13 12
7 6 6 5 4 3 2 2 2 3 5 7 9 11 11 12 13 14 14 15 17 18 19 20 18 16 9 9 18 14 20 17 15 15 14 14 13 10
5 4 3 2 2 1 1 3 5 7 8 10 11 12 12 12 14 14 14 16 17 18 20 18 16 14 14 11 17 22 17 18 14 15 13 12 11 11
4 3 2 1 1 2 4 5 7 8 10 12 12 12 12 13 14 14 16 17 18 19 19 18 18 20 21 18 15 20 18 19 17 13 11 11 9 9
4 3 3 2 3 4 6 7 9 11 12 13 13 13 14 13 14 15 16 17 18 18 20 21 20 18 19 17 17 20 11 12 20 18 14 11 7 5
5 4 4 4 5 7 9 11 12 14 14 15 15 14 13 14 14 15 16 16 17 18 19 20 19 18 18 18 19 19 10 9 11 11 11 12 14 14

GFSNE_925_spd_066.txt.gz
Wind_Speed
24 24 27 29 29 27 27 27 21 7 9 17 15 17 17 16 15 13 13 15 18 20 21 23 23 22 23 25 28 30 32 34 34 33 33 35 38 40
24 24 24 25 25 26 26 26 25 20 4 14 18 15 17 15 15 14 12 16 17 20 21 21 23 24 26 27 28 30 31 33 34 35 36 35 37 39
23 25 27 27 28 27 28 23 23 21 15 13 12 13 17 17 13 11 11 12 14 18 20 22 23 24 25 28 30 32 34 35 37 37 38 35 36 37
26 26 31 28 33 30 30 31 29 26 21 18 17 15 17 11 11 11 12 13 14 16 21 22 23 25 27 28 29 29 30 31 33 35 37 36 36 36
32 30 36 35 35 34 31 30 26 22 23 15 13 14 12 13 11 11 13 14 15 18 21 20 20 22 21 23 24 25 26 27 28 31 34 36 34 32
41 40 41 38 39 36 33 30 27 29 22 19 15 13 10 9 9 10 14 15 15 15 16 18 17 19 20 22 24 22 22 22 27 30 30 31 30 31
34 38 40 41 42 37 35 33 31 27 24 17 10 9 9 10 12 11 13 13 15 16 16 13 13 16 19 21 23 22 20 26 27 26 27 29 28 28
33 36 36 37 35 33 32 33 36 33 24 17 13 11 14 13 11 11 11 12 12 9 10 15 17 20 21 20 22 25 27 26 25 26 27 25 23 23
36 34 33 31 29 30 31 29 30 25 23 22 19 12 10 10 9 10 12 12 14 15 17 20 17 21 20 20 22 25 27 27 23 24 25 22 21 21
34 33 32 31 33 34 33 30 24 20 17 12 11 10 8 6 7 9 10 12 15 17 16 19 16 20 21 20 22 24 25 24 23 24 23 21 20 20
24 26 27 29 28 29 26 20 16 13 10 9 9 11 10 10 10 6 9 11 14 15 14 18 17 19 22 25 22 17 17 21 20 24 21 17 15 13
18 18 21 27 27 24 22 18 18 11 7 6 3 2 3 4 8 8 8 12 13 12 6 10 14 16 13 13 13 16 22 19 18 23 18 13 10 10
24 25 25 23 21 20 16 12 11 12 10 5 3 2 3 4 6 7 9 12 14 17 17 11 13 18 20 27 26 23 23 22 17 16 16 18 15 12
28 26 23 23 18 17 15 13 13 9 6 4 3 3 5 6 8 9 11 14 16 20 19 17 16 19 22 24 25 25 24 20 17 15 13 11 13 14
25 24 23 21 19 16 15 13 9 6 4 2 2 5 6 8 10 12 14 15 16 18 18 18 21 23 23 25 27 28 27 25 18 16 15 12 11 12
29 25 20 15 12 12 9 7 5 3 2 2 4 6 8 9 11 12 14 15 17 17 15 16 19 20 24 25 26 28 29 24 17 16 18 15 14 12
23 16 11 10 10 8 6 4 3 2 1 2 5 7 9 11 12 12 14 15 17 18 18 16 16 19 24 26 28 29 30 28 20 18 16 17 15 15
12 10 8 6 5 4 3 3 1 1 2 4 7 9 11 12 13 13 15 15 17 18 18 18 18 20 21 23 24 29 29 27 21 18 20 17 17 15
9 7 6 5 4 3 2 1 2 2 3 6 8 10 12 13 13 14 15 16 17 18 18 18 18 18 11 11 22 19 18 22 21 19 19 18 17 14
9 7 6 5 4 3 2 3 5 6 7 8 10 11 13 14 15 15 16 16 17 19 20 19 17 17 17 13 21 34 28 26 21 15 16 17 14 10
8 8 6 5 4 4 4 5 6 8 9 11 12 13 13 14 16 16 17 17 17 19 19 19 18 20 23 23 21 25 26 21 23 25 14 13 13 12
8 8 7 6 5 5 6 8 10 11 13 13 14 15 15 15 16 16 16 17 18 18 20 21 21 20 20 20 21 22 25 24 23 20 13 9 6 6
7 6 5 6 7 8 10 11 12 13 14 14 15 15 14 15 15 16 16 17 18 19 19 20 20 20 21 21 22 23 24 26 21 13 20 18 15 9

GFSNE_925_spd_069.txt.gz
Wind_Speed
27 29 28 26 23 23 24 22 19 8 10 23 22 23 26 24 22 30 25 21 24 24 25 25 25 24 25 25 24 24 26 27 29 29 30 30 29 30
29 29 28 27 23 25 28 27 26 25 8 19 23 23 25 23 23 21 19 21 24 24 24 25 24 26 25 25 26 27 28 28 30 31 33 34 32 32
32 31 30 26 25 27 26 27 28 23 12 15 19 25 25 25 23 23 20 19 20 21 22 21 24 25 26 26 27 29 29 30 31 32 33 33 31 31
33 31 30 28 29 29 31 34 32 35 26 23 26 25 25 28 25 22 19 19 17 16 18 21 22 24 26 28 30 29 28 27 27 28 30 31 31 30
36 34 32 31 31 31 33 33 34 34 32 25 17 19 15 22 22 18 19 19 16 17 17 19 25 24 24 25 27 24 26 28 28 27 26 28 30 31
39 38 37 38 39 39 36 38 36 30 28 28 19 21 23 22 24 20 16 17 16 15 16 18 19 21 24 21 20 22 22 21 20 21 25 30 30 30
38 35 36 39 42 41 36 35 33 31 25 25 18 14 17 16 21 15 15 15 14 13 16 16 15 14 15 17 20 21 21 20 21 25 30 29 29 30
35 35 35 37 43 42 42 41 42 37 31 27 24 21 18 17 20 15 13 8 9 12 15 14 13 15 19 20 20 22 25 27 30 29 28 27 28 29
35 33 35 41 40 39 38 32 29 30 27 23 17 11 11 14 13 11 10 8 10 12 9 15 17 20 20 21 21 22 25 28 28 28 28 27 29 28
38 35 37 40 34 30 26 24 19 16 12 15 18 17 10 7 8 8 6 8 9 12 11 13 15 20 19 22 24 25 27 28 28 26 25 25 27 27
29 27 28 26 23 27 28 27 21 16 13 11 15 10 12 10 10 9 6 7 9 12 12 16 16 20 20 19 26 26 20 21 21 26 23 24 25 22
14 12 13 15 19 24 24 27 25 18 15 10 8 7 5 6 8 10 5 8 9 8 7 11 14 13 16 20 15 14 22 23 24 23 23 24 23 15
16 18 19 23 23 22 22 20 19 16 12 12 9 3 3 4 3 4 6 8 10 15 13 10 10 16 17 22 23 20 23 28 27 27 25 23 20 19
25 26 24 24 23 21 21 20 17 16 11 6 4 2 1 2 5 6 7 9 12 16 17 16 12 16 20 22 22 19 21 21 25 28 24 19 17 16
30 28 25 25 25 25 20 18 13 10 6 4 2 2 3 5 7 9 10 12 15 16 17 17 19 21 21 23 24 23 25 25 26 29 26 19 17 19
33 27 22 21 19 18 15 11 9 6 5 3 1 2 4 6 9 9 11 14 15 17 15 16 18 19 21 23 23 25 22 23 27 28 27 22 19 20
27 21 17 14 14 12 10 8 6 5 4 3 4 6 7 8 10 10 11 13 16 17 17 16 16 18 21 24 24 24 26 26 27 28 26 23 17 20
16 14 13 11 10 9 7 6 5 5 4 4 5 7 9 10 12 12 13 15 17 18 18 18 18 20 21 23 23 26 24 22 19 22 25 24 17 19
16 14 14 13 12 10 9 7 6 4 4 3 6 8 10 12 13 15 15 15 17 18 19 19 19 18 10 11 21 18 18 20 26 28 26 21 17 17
17 15 14 12 10 9 8 7 7 7 6 7 9 10 11 13 15 16 16 16 18 19 21 21 20 20 16 12 20 26 27 26 25 25 25 30 19 14
14 14 12 11 10 8 7 5 5 5 7 8 10 11 12 14 16 17 17 17 18 20 21 21 21 24 25 25 23 25 24 21 24 27 24 22 14 13
14 12 10 9 8 7 6 7 7 8 10 11 12 13 13 14 15 16 17 17 18 19 21 22 23 23 22 22 21 25 26 24 27 28 28 26 15 6
11 9 8 7 7 7 7 8 8 9 10 10 11 12 12 14 14 15 15 16 17 19 20 21 21 21 22 23 24 24 26 25 26 25 27 14 13 4

GFSNE_925_spd_072.txt.gz
Wind_Speed
36 32 36 35 32 29 28 28 19 7 9 22 21 26 28 27 34 37 34 39 37 36 35 33 31 29 27 26 25 25 25 25 24 24 25 25 25 23
35 37 38 34 35 34 32 33 31 22 11 23 25 26 25 32 34 32 36 38 35 31 31 30 29 28 26 26 26 25 25 25 25 26 26 27 27 25
35 36 35 33 34 34 34 32 30 28 20 25 30 32 33 32 32 37 34 34 34 30 29 29 29 27 26 27 27 27 26 26 27 29 29 28 27 26
39 38 37 36 35 34 32 34 30 32 30 27 26 33 34 33 37 32 30 31 32 30 30 29 27 24 23 24 25 27 28 28 29 28 26 26 27 27
40 39 39 37 37 35 34 32 34 34 32 31 29 27 32 37 36 35 40 33 29 27 24 25 25 23 21 23 28 30 29 27 25 24 25 25 25 24
43 43 42 41 39 37 34 35 33 30 29 30 30 24 27 27 35 33 29 34 34 20 22 19 20 20 19 21 23 22 19 19 19 19 21 21 24 28
44 44 44 45 44 42 38 34 30 30 32 29 27 19 21 19 30 27 24 20 20 16 17 16 13 15 17 18 16 17 18 18 20 22 23 24 25 27
40 41 43 43 44 45 43 44 43 38 36 31 32 22 23 16 20 20 13 7 3 12 8 16 18 19 16 17 17 21 21 22 25 26 25 26 27 27
38 37 38 40 42 41 43 44 47 44 43 33 22 16 14 15 16 14 11 16 10 8 7 10 15 16 18 19 18 19 18 21 24 26 26 27 25 24
40 39 37 32 33 35 35 29 18 10 10 18 19 15 16 16 19 17 13 9 4 7 11 7 18 21 19 19 18 21 24 22 26 28 27 24 24 26
34 34 33 31 29 32 28 17 18 19 18 18 19 18 16 17 14 13 8 3 2 5 5 12 16 18 19 21 20 18 23 19 16 17 17 22 27 28
18 15 10 10 11 14 16 23 25 21 20 21 21 18 16 11 8 7 9 9 2 3 2 5 5 8 6 11 15 14 18 24 24 27 31 30 28 27
12 12 12 12 16 18 21 25 27 22 22 21 19 15 10 5 5 2 2 4 3 6 7 11 7 13 11 12 21 22 21 26 26 24 24 28 25 25
25 27 26 23 22 23 26 28 26 22 21 17 18 12 10 7 6 4 4 4 4 8 12 14 12 11 13 18 17 18 21 25 24 28 31 31 26 23
27 33 36 35 33 29 27 24 21 19 18 16 15 10 8 5 2 4 5 5 8 11 12 13 16 18 19 20 22 22 25 25 27 27 23 27 27 24
29 31 29 32 30 24 20 20 20 17 16 16 12 9 6 4 4 5 5 6 8 10 12 14 17 19 22 22 22 23 22 18 28 30 30 31 31 28
30 27 23 20 25 22 20 20 18 17 17 12 10 9 8 7 7 8 9 10 11 14 16 15 16 18 21 22 21 23 25 28 28 28 17 21 26 23
21 19 19 18 16 18 18 18 17 14 12 10 10 10 11 11 11 12 12 12 12 13 15 16 18 18 19 19 18 24 22 16 18 22 26 22 27 31
25 23 21 21 20 19 17 17 16 13 11 13 12 11 10 10 11 11 13 13 13 14 15 16 17 17 8 9 17 14 24 24 25 26 22 20 23 31
24 23 21 20 20 19 17 15 13 11 11 11 9 8 9 10 12 12 13 15 15 16 18 19 18 16 13 12 21 25 19 27 27 27 24 23 28 26
21 22 21 20 18 15 12 10 10 10 10 10 11 11 12 11 12 13 14 15 16 15 15 17 19 24 25 26 20 22 24 24 25 27 22 22 23 24
18 17 16 14 14 14 13 11 12 12 12 11 10 10 10 10 12 12 13 14 14 15 16 19 21 21 21 19 20 23 25 28 31 29 26 26 23 6
16 16 15 13 13 12 11 10 9 9 9 8 10 10 11 12 12 13 13 14 15 15 17 19 18 19 20 21 23 24 26 27 26 26 28 24 22 21

GFSNE_925_spd_075.txt.gz
Wind_Speed
34 39 36 33 30 28 30 31 20 8 8 23 27 35 37 36 38 39 45 48 47 45 43 41 41 41 39 39 37 33 31 29 28 26 24 23 23 23
38 38 38 37 35 32 35 37 36 27 12 28 29 32 34 36 36 36 40 39 39 43 40 39 42 41 40 37 35 32 31 29 28 26 24 25 25 22
40 39 38 37 35 38 41 39 35 32 23 33 34 39 36 38 38 36 38 43 43 44 41 39 41 39 39 37 35 31 28 28 27 26 25 25 25 24
40 39 42 41 41 41 40 38 36 37 32 29 34 32 39 40 40 40 42 44 44 42 41 41 39 37 35 33 29 25 26 26 25 26 26 25 26 24
41 40 41 40 42 40 40 37 37 35 33 32 34 30 33 36 38 40 41 42 44 43 44 40 37 33 30 27 23 19 20 26 27 27 25 24 23 20
43 43 45 42 43 41 40 39 37 33 34 31 32 32 30 32 36 28 28 38 37 32 32 33 34 30 26 22 17 16 19 25 22 18 18 19 18 19
42 44 45 46 47 47 40 38 35 34 33 30 29 29 22 20 23 30 30 26 24 24 22 22 18 15 15 13 14 17 20 17 17 18 20 21 21 21
42 43 44 46 49 52 51 49 45 40 37 33 32 29 30 30 26 25 19 10 4 11 19 16 18 17 15 17 12 14 17 18 18 21 23 22 22 22
41 39 38 42 46 48 48 48 50 46 44 39 31 29 23 26 29 18 17 9 3 8 14 10 15 16 14 11 16 18 18 19 18 20 21 21 23 24
41 43 44 43 44 43 41 36 34 33 34 33 30 20 13 14 17 18 17 15 11 6 4 2 4 9 11 17 21 18 16 19 20 19 20 19 20 21
41 42 43 42 40 35 34 29 19 13 11 12 15 17 16 14 15 16 17 15 4 2 2 2 5 12 18 18 16 15 17 17 16 16 17 18 21 25
35 31 29 31 28 28 33 31 26 24 27 29 29 26 24 20 19 15 11 13 5 2 2 2 3 2 5 6 9 12 13 14 19 26 28 28 22 20
20 12 8 9 15 19 21 24 28 27 24 24 23 21 19 19 16 12 8 7 4 2 3 4 2 6 5 6 13 20 25 29 27 26 26 22 23 26
20 22 23 23 22 22 26 31 27 30 27 25 24 19 20 18 12 12 8 6 4 1 8 12 9 10 10 10 10 12 20 23 20 26 27 26 24 21
35 36 38 36 34 38 31 31 28 27 24 22 19 19 14 12 5 6 3 5 5 6 6 8 12 15 15 16 17 17 19 20 21 18 21 31 29 27
39 38 39 35 33 34 33 28 26 25 25 22 20 16 13 12 12 11 9 8 8 9 11 10 11 14 18 18 18 18 18 14 24 27 30 29 24 20
32 31 26 25 22 27 28 26 24 23 23 18 16 14 13 12 10 9 9 9 7 8 10 14 15 15 15 15 15 16 19 19 17 14 18 24 26 27
26 25 21 20 21 22 21 21 21 22 20 16 15 13 13 12 10 9 10 10 10 11 12 13 18 20 19 18 15 17 14 18 21 21 22 24 26 25
25 22 22 21 22 21 20 19 21 19 15 14 13 13 12 11 12 12 13 14 13 13 13 15 15 15 6 6 15 18 23 25 26 23 21 23 26 29
24 21 21 21 20 19 17 16 17 17 17 15 15 14 14 14 14 15 15 16 13 12 12 13 14 15 15 11 19 22 15 21 23 25 23 26 28 28
21 23 21 22 20 19 18 18 18 17 17 15 15 14 13 13 13 13 13 13 14 12 12 13 15 18 20 21 18 20 23 23 23 25 26 26 24 26
20 20 19 18 17 16 15 14 14 15 14 13 12 11 11 10 11 12 12 12 12 12 13 16 16 17 17 17 18 23 27 29 32 27 24 25 24 11
19 16 16 15 14 14 13 13 13 12 11 10 8 8 7 8 9 9 10 11 14 15 14 15 19 18 18 18 21 22 27 29 28 30 29 25 26 28

GFSNE_925_spd_081.txt.gz
Wind_Speed
37 38 37 38 33 30 24 24 11 4 7 19 17 25 27 31 32 36 38 38 39 42 43 43 43 43 46 47 49 52 52 52 49 48 47 47 43 39
42 41 39 36 36 34 29 29 23 19 11 28 29 33 38 38 40 42 42 43 43 43 44 44 42 43 46 46 44 45 49 54 53 49 49 47 45 39
45 41 40 40 38 38 38 35 33 31 23 36 34 34 36 40 43 45 46 46 47 46 46 45 45 44 43 45 45 46 46 47 49 47 49 47 35 31
38 38 40 39 41 42 41 38 35 35 29 28 34 31 35 43 45 47 48 50 47 46 46 44 44 43 40 42 45 45 46 47 43 44 37 32 31 26
39 39 40 36 37 37 36 34 34 35 31 28 34 38 35 36 39 40 42 43 44 44 47 46 46 46 45 44 44 41 44 45 40 37 33 32 30 29
40 42 42 41 43 38 38 38 37 33 31 29 31 36 36 36 34 32 32 35 40 43 43 45 46 45 44 43 42 38 36 36 35 33 32 31 30 28
39 44 44 45 48 48 41 41 36 34 32 32 31 32 32 30 26 34 34 36 37 38 38 40 40 41 39 33 28 25 28 29 28 26 26 25 23 24
39 40 43 43 49 50 51 54 49 37 35 34 34 31 35 34 36 34 35 29 11 28 33 31 25 24 23 22 20 24 23 21 18 15 18 17 14 14
39 39 39 40 43 47 50 53 56 58 59 52 43 40 40 40 39 34 30 35 32 21 22 8 11 13 13 15 18 19 15 15 14 12 10 11 13 15
42 42 42 45 44 46 48 44 48 53 54 60 54 50 48 45 40 39 33 20 9 7 10 4 10 11 11 11 10 8 9 9 9 8 9 9 11 13
44 42 33 35 38 40 43 39 37 34 24 28 28 15 12 13 16 21 17 17 4 4 6 4 4 9 8 7 3 5 5 4 5 4 1 4 9 14
21 20 23 27 32 36 31 29 22 12 11 13 17 17 16 14 11 9 10 13 11 6 13 4 6 7 3 8 6 6 4 1 2 4 7 10 13 15
6 14 17 15 12 14 13 4 17 26 29 27 28 29 30 29 28 25 21 20 15 14 12 7 6 4 4 4 3 4 8 9 14 14 13 12 9 8
21 24 24 26 28 31 32 35 33 29 29 29 27 26 25 25 27 26 24 25 24 20 14 15 8 11 6 3 2 5 10 12 12 15 12 10 17 15
27 25 25 29 32 32 29 28 30 31 29 24 23 22 23 19 19 20 19 18 20 19 19 17 13 10 8 5 4 6 9 7 6 9 16 16 16 17
27 30 31 34 35 33 32 32 31 29 25 23 23 21 19 20 20 18 18 11 18 16 15 15 13 12 9 7 8 8 8 6 14 16 19 23 23 21
26 27 29 28 27 28 30 30 28 26 25 22 20 19 18 18 18 16 16 15 15 12 14 15 14 12 8 8 5 7 12 13 18 20 19 21 20 22
28 25 23 23 23 22 22 23 24 22 20 19 19 18 16 15 14 14 14 14 12 11 13 16 18 13 12 9 5 11 15 19 19 18 20 23 23 22
27 22 21 20 19 19 19 19 19 18 16 17 16 15 13 13 13 12 11 11 12 12 13 13 13 12 5 2 10 6 18 17 20 20 20 21 26 28
24 21 20 19 18 17 17 16 15 15 15 16 15 14 13 13 13 13 13 13 11 10 9 9 11 12 8 3 11 24 19 21 21 23 25 27 29 31
19 20 18 17 16 16 15 14 15 15 15 15 14 14 12 11 12 11 10 11 10 8 8 8 10 11 12 13 11 17 27 21 21 25 28 26 27 31
18 18 16 14 13 12 11 11 12 12 12 12 11 10 9 9 10 10 10 10 9 8 7 10 14 16 13 11 14 19 23 31 29 24 25 25 25 11
16 15 13 13 12 11 10 10 11 10 10 9 9 7 6 6 6 6 7 7 8 10 12 14 16 17 16 13 17 21 25 27 28 31 36 28 26 31

GFSNE_925_spd_087.txt.gz
Wind_Speed
36 35 31 32 32 28 25 19 19 10 8 10 13 14 17 29 30 27 34 36 34 33 33 32 33 37 40 44 44 43 43 44 44 45 46 46 47 49
35 33 29 28 28 28 23 19 19 22 11 21 20 24 28 31 28 31 36 35 38 43 40 37 39 44 45 49 48 46 47 47 46 46 45 44 44 45
36 34 31 27 26 27 30 27 21 23 16 23 25 33 31 35 41 41 44 41 40 50 51 53 52 52 51 52 52 52 52 51 49 47 46 44 44 45
31 34 40 39 40 41 35 34 33 37 28 26 37 32 32 36 42 39 41 39 38 45 52 50 50 52 53 52 53 53 52 50 50 47 45 44 46 44
36 35 35 32 33 29 29 29 29 30 29 29 32 32 31 31 32 35 36 37 38 42 46 52 53 52 51 48 48 49 50 48 46 45 46 46 46 47
34 35 33 32 30 29 30 34 35 31 30 29 30 32 31 33 31 31 32 33 34 33 36 40 42 45 46 48 49 48 48 46 48 49 48 48 48 49
32 33 29 30 33 33 29 30 29 29 29 29 28 28 30 30 30 31 31 33 34 34 35 33 36 34 30 32 38 42 43 43 41 40 39 39 41 37
28 28 29 32 38 40 42 43 42 35 32 30 31 30 33 32 34 33 32 29 17 31 31 28 24 18 15 17 21 25 24 23 23 21 16 14 14 13
28 29 30 33 35 37 36 39 42 46 50 45 36 32 27 24 26 28 31 32 29 17 12 2 10 9 8 7 7 4 5 6 6 6 7 6 6 4
15 16 18 20 18 22 26 27 22 21 25 25 20 12 15 19 23 25 25 24 20 16 9 3 8 10 11 13 9 10 11 10 9 7 5 4 3 3
2 4 7 10 14 16 17 14 13 2 6 1 5 4 2 5 9 10 10 11 4 5 7 2 4 11 14 13 12 8 8 7 5 4 2 3 4 3
11 13 18 11 9 8 5 4 9 13 15 13 15 17 19 21 19 13 8 7 5 5 14 5 3 1 2 6 8 10 11 11 9 8 9 8 8 6
20 22 21 20 18 15 11 15 19 21 19 21 22 22 25 27 28 26 23 19 10 12 13 4 7 4 4 2 3 7 9 8 8 8 9 5 5 6
21 19 21 26 26 26 27 25 23 22 22 24 23 20 20 20 20 22 23 22 22 18 15 11 5 7 3 0 1 4 7 8 8 7 7 9 10 11
22 21 21 23 25 27 25 25 23 20 18 18 17 15 14 13 11 11 12 14 16 16 15 14 11 8 7 5 4 6 8 7 8 10 12 12 13 13
21 25 27 27 27 24 22 22 20 16 15 14 12 10 9 9 10 8 7 3 8 10 12 13 10 8 6 5 4 4 7 8 13 13 14 14 13 13
17 16 17 18 19 18 18 17 16 15 14 11 9 8 8 8 10 10 9 9 10 9 11 12 11 7 5 5 3 6 8 10 12 14 16 17 17 17
17 17 17 16 16 15 14 14 15 14 13 11 10 10 9 10 9 10 9 10 9 10 10 12 13 9 5 4 5 6 9 12 15 17 18 18 21 21
19 16 15 14 13 12 12 12 12 12 11 11 10 9 8 8 9 9 9 9 8 8 9 10 11 11 5 5 6 5 12 15 17 18 18 20 24 27
17 15 13 12 12 12 11 11 10 10 11 11 11 10 9 9 8 8 9 8 7 7 7 8 9 9 8 6 10 11 12 14 15 20 22 24 28 30
14 14 12 11 11 11 10 10 10 11 10 10 10 9 9 8 8 8 7 8 7 7 6 7 8 9 8 9 9 16 17 13 14 20 23 24 25 28
12 12 11 10 9 9 8 8 8 9 9 8 8 8 7 7 6 6 7 7 7 6 7 7 9 9 8 8 12 16 19 24 20 18 17 17 19 8
11 10 9 8 8 8 8 8 8 8 8 7 7 6 6 5 5 5 6 6 6 6 7 8 8 8 9 10 13 17 20 22 26 32 25 16 19 24

GFSNE_925_spd_093.txt.gz
Wind_Speed
24 24 24 20 18 18 11 12 10 7 8 17 16 19 25 25 28 26 31 31 25 21 23 35 38 40 40 37 37 39 38 37 36 37 40 44 44 46
20 22 21 19 22 19 15 15 13 10 8 16 10 11 16 17 19 25 28 28 26 29 32 36 38 36 42 41 41 42 43 41 40 43 47 49 51 52
29 25 25 24 22 19 19 16 13 17 12 16 16 17 26 21 19 25 32 32 36 41 46 45 44 47 50 51 53 50 48 46 47 52 53 51 51 50
26 22 25 23 24 25 18 22 19 16 13 15 19 23 27 32 33 33 34 34 38 38 36 36 39 41 46 46 45 46 46 48 48 47 47 48 48 46
26 26 25 23 21 19 21 24 25 25 22 19 28 30 33 33 31 35 38 37 35 35 39 40 43 46 47 48 47 46 46 46 46 45 46 44 43 44
26 27 25 25 27 25 24 28 28 28 26 26 29 33 33 32 30 31 30 31 31 29 29 26 23 25 30 31 36 38 39 42 44 44 42 42 39 37
27 25 28 27 26 25 24 25 25 25 26 27 30 28 29 27 26 26 24 23 24 22 24 24 22 18 15 14 16 17 19 20 22 23 23 23 22 21
23 26 26 28 33 33 33 34 30 27 24 20 17 14 21 19 20 16 13 8 4 10 5 7 10 11 12 12 9 10 10 11 13 12 12 10 8 7
16 13 11 13 18 23 23 28 33 31 29 23 17 13 11 15 18 20 14 9 7 15 18 7 7 4 5 5 6 6 6 7 7 7 8 8 8 9
3 4 7 9 10 14 12 11 3 3 5 6 3 2 6 10 10 11 12 12 10 7 6 2 4 2 3 3 5 6 7 8 9 9 10 10 10 10
8 4 2 2 5 4 6 8 9 12 14 11 12 11 9 5 5 2 4 4 1 4 8 3 3 3 4 4 5 6 8 8 9 10 10 12 12 11
15 15 16 9 4 3 7 12 14 12 12 13 14 15 16 16 16 13 11 6 4 3 10 6 4 4 3 2 3 4 7 11 10 13 16 17 18 13
21 21 21 18 18 15 15 13 18 15 16 15 15 16 16 16 18 17 16 12 11 8 9 7 5 6 5 4 3 6 7 8 9 11 13 15 21 18
22 24 23 25 28 29 28 23 22 19 17 16 14 14 13 14 14 15 16 15 12 9 9 9 4 7 7 8 5 4 5 10 9 11 12 14 14 14
24 22 20 21 24 26 23 21 21 19 17 14 13 11 10 9 9 8 7 6 6 9 10 9 7 8 7 8 11 12 10 10 9 13 15 15 18 18
22 24 23 23 22 21 20 20 19 17 15 12 10 9 8 9 9 9 8 8 5 6 8 10 10 8 8 8 10 10 10 9 15 14 16 17 18 17
16 16 16 16 17 16 16 16 14 13 13 11 11 10 9 9 9 9 9 7 6 7 9 10 11 9 6 6 8 10 11 12 13 16 18 19 19 18
15 15 15 15 14 13 13 13 14 14 13 11 10 10 9 10 9 9 8 8 8 8 9 11 13 13 9 3 3 9 10 13 16 17 18 19 21 21
15 15 14 13 13 12 12 12 12 12 11 11 11 11 10 8 9 9 10 10 10 10 9 9 10 11 8 6 9 8 12 16 18 19 18 20 23 26
14 13 12 12 11 11 11 11 11 10 10 10 10 9 9 9 9 10 9 10 11 11 10 10 10 10 11 10 14 20 11 12 18 19 22 24 25 27
12 12 11 11 10 9 9 9 9 8 8 8 8 9 9 9 9 9 9 10 11 10 12 11 12 12 11 14 13 15 17 17 10 21 21 21 23 26
10 9 9 8 8 8 7 7 6 7 8 8 8 8 9 8 9 9 9 10 11 11 13 13 14 13 13 13 15 16 19 19 20 17 18 20 18 9
8 7 7 7 7 6 6 6 7 7 8 8 8 8 9 9 9 9 9 10 11 12 13 15 15 14 14 16 15 17 20 20 20 21 19 15 19 23

GFSNE_925_spd_096.txt.gz
Wind_Speed
35 32 30 23 18 16 6 1 9 4 6 17 11 27 25 24 26 27 27 28 30 32 31 30 29 28 30 33 35 38 40 37 35 36 39 41 40 40
34 34 28 22 21 15 7 10 2 4 3 4 12 9 15 18 22 24 25 25 27 30 33 33 32 31 34 39 42 43 41 38 40 42 44 43 45 44
29 29 23 21 17 15 17 16 14 9 4 8 9 7 7 13 16 20 22 24 29 30 33 38 38 41 41 42 39 41 43 45 45 44 43 42 39 41
27 25 25 24 21 20 18 20 24 18 15 11 14 16 25 25 24 25 24 28 33 37 40 43 42 44 47 42 38 40 40 42 43 47 46 41 41 41
26 27 25 22 23 26 26 24 26 21 20 16 14 21 26 27 25 26 27 29 32 34 35 38 43 36 36 37 36 37 38 39 39 38 37 39 36 33
25 25 27 30 28 25 25 27 24 22 23 23 23 21 22 27 23 24 26 25 29 24 21 18 18 19 19 19 22 27 27 25 22 18 18 18 19 21
26 24 23 26 24 27 24 23 22 23 21 19 19 19 20 21 21 20 20 17 12 9 7 9 9 9 8 9 10 11 14 15 17 17 17 16 14 12
25 24 25 21 27 24 24 19 21 23 19 18 17 19 16 7 5 3 3 3 2 4 4 8 10 9 8 8 9 10 10 10 10 11 10 10 10 11
21 19 18 22 20 25 29 32 26 29 30 24 19 10 5 9 11 11 7 4 4 11 12 5 8 6 6 6 7 6 6 7 8 8 9 10 12 12
10 11 12 10 9 16 18 15 10 5 2 3 5 5 2 4 5 5 4 3 2 2 5 1 4 4 4 4 5 6 8 10 9 10 12 14 13 12
13 9 4 2 4 7 11 17 18 19 17 15 15 13 10 7 5 5 6 3 3 5 8 3 6 5 3 2 4 6 8 10 12 12 15 19 19 17
21 22 19 11 9 9 12 16 19 18 17 18 17 16 15 15 12 11 9 10 6 4 9 3 4 5 1 1 4 11 12 8 11 12 12 15 20 22
28 29 29 24 20 17 17 17 21 20 20 19 19 18 18 19 20 18 14 11 12 10 8 3 6 6 3 4 5 7 7 7 7 8 10 12 16 16
29 30 31 34 32 32 30 25 24 21 19 18 20 19 17 15 16 16 16 16 15 10 7 7 4 7 6 5 4 7 1 9 5 9 11 14 18 20
31 30 29 30 28 27 25 23 22 20 18 18 18 15 12 11 11 10 9 8 8 11 11 10 7 7 7 9 9 9 11 9 6 15 13 16 20 19
29 28 28 27 25 23 23 22 20 17 16 15 13 12 11 11 12 10 10 7 6 7 8 10 11 10 8 7 8 12 12 8 14 14 18 20 20 19
25 24 23 21 19 19 21 20 19 17 17 15 14 13 12 12 12 11 10 9 8 8 8 10 11 11 11 8 4 9 13 13 16 20 22 24 22 20
25 22 20 20 19 17 17 18 18 18 16 15 15 15 13 12 11 11 12 13 12 11 12 11 13 16 15 4 4 8 12 16 17 19 20 22 24 25
22 19 19 18 18 17 16 17 16 15 14 14 15 13 15 13 13 14 13 14 15 15 13 13 11 13 7 3 12 10 20 18 17 20 18 22 25 29
20 18 18 17 16 17 15 14 14 13 14 14 14 13 14 14 13 14 14 13 14 14 13 13 13 11 8 5 12 21 13 14 21 20 22 27 29 27
18 18 18 17 16 12 13 12 11 12 13 13 14 13 11 16 13 13 13 13 14 13 13 14 15 15 15 14 13 18 15 17 16 22 22 26 24 26
16 17 16 14 13 13 11 10 12 11 12 14 12 12 10 12 11 12 12 12 13 12 13 14 15 19 18 16 15 19 19 20 21 14 17 19 18 8
15 14 11 11 13 11 12 10 8 11 8 9 10 9 9 12 10 10 11 12 13 15 14 17 18 20 19 18 19 18 20 22 21 20 22 23 23 22

GFSNE_925_spd_099.txt.gz
Wind_Speed
39 37 29 34 27 33 30 28 17 7 9 17 12 33 33 33 29 27 28 28 27 27 26 28 30 32 33 33 32 31 32 34 36 39 41 40 36 34
38 36 34 33 32 25 23 19 25 14 4 12 26 22 33 31 29 29 28 26 24 25 23 25 28 31 33 34 36 33 34 39 40 40 37 36 38 36
36 37 35 35 28 25 18 13 14 11 7 5 13 13 22 23 19 19 18 21 25 25 27 27 28 31 33 37 38 40 41 41 42 36 31 30 31 34
33 33 32 35 31 23 19 15 11 11 10 9 12 14 15 16 15 17 18 21 27 30 30 32 35 35 36 36 39 42 44 43 42 40 35 34 29 27
31 34 34 34 32 22 19 16 17 11 12 14 19 19 19 17 18 21 22 26 26 28 28 30 31 33 31 31 33 30 23 21 22 20 18 18 16 13
33 33 35 33 26 21 20 25 23 24 26 22 21 20 20 21 21 21 22 21 21 17 18 20 18 15 15 11 11 12 12 10 8 8 10 11 10 10
30 26 24 21 20 23 23 26 27 26 24 22 16 15 18 16 16 17 18 14 11 11 10 7 6 6 5 3 4 5 6 6 6 6 5 5 6 5
20 21 22 21 22 17 26 26 27 27 26 21 17 16 18 12 12 13 10 7 4 6 8 7 3 2 1 3 3 5 6 6 6 5 5 5 5 6
20 25 23 22 21 22 23 23 20 24 25 21 16 11 9 9 8 7 8 7 3 3 3 3 1 2 2 2 4 3 4 5 5 6 8 8 9 9
15 16 20 19 20 20 20 18 13 8 7 10 12 9 8 9 10 8 7 5 5 2 1 2 5 4 2 3 3 4 4 5 7 7 8 10 13 12
12 10 11 11 10 14 19 22 22 22 19 17 16 12 8 6 5 6 7 9 4 5 8 4 6 4 4 6 6 6 8 7 9 8 8 10 14 18
22 21 14 15 15 16 21 24 27 23 21 20 19 17 15 14 11 10 9 10 7 5 8 3 5 3 0 0 3 3 4 5 6 5 6 10 11 15
28 28 25 19 20 20 21 24 28 24 23 22 21 21 20 20 21 19 16 12 12 11 6 4 5 4 2 3 5 4 3 7 5 4 4 6 11 17
28 31 33 36 35 34 33 30 29 26 23 23 23 21 20 17 18 18 19 18 18 15 8 4 6 6 4 2 1 6 5 5 4 5 6 10 16 19
33 31 32 33 34 30 28 24 25 27 28 25 22 19 16 12 15 14 11 11 13 14 13 11 9 6 5 5 5 7 8 3 9 11 15 19 22 18
31 30 30 30 31 29 27 25 24 23 24 23 21 19 15 14 15 12 12 11 9 9 9 9 10 8 8 5 4 7 10 7 16 19 21 21 20 20
25 28 25 23 27 26 26 24 21 20 22 21 19 16 17 16 14 9 12 13 15 13 10 11 12 13 7 2 2 7 11 15 17 17 24 23 25 25
24 24 23 22 21 20 21 22 20 19 17 18 19 19 17 17 15 13 11 13 13 14 15 10 10 12 12 6 6 10 16 18 16 19 22 23 23 30
22 20 20 20 19 18 19 19 20 19 15 16 17 19 17 15 17 17 15 14 13 13 13 13 17 17 5 1 9 12 19 16 20 26 21 24 26 31
20 19 19 19 18 17 17 17 17 17 16 15 15 16 18 16 16 15 13 14 14 11 11 13 16 17 12 6 12 17 17 17 20 22 23 24 27 24
19 21 20 18 17 17 16 16 14 17 16 15 14 13 15 13 14 15 13 13 14 13 12 13 14 14 13 13 12 16 15 14 18 20 20 21 20 26
17 18 18 18 17 15 13 11 12 11 12 12 12 12 13 12 13 14 15 14 13 13 12 15 17 17 14 13 13 17 18 21 19 14 17 19 21 12
16 14 13 12 13 13 11 10 11 10 9 8 9 11 13 12 10 10 12 12 12 12 14 15 16 16 15 12 15 17 18 19 18 21 21 23 22 21

GFSNE_925_spd_102.txt.gz
Wind_Speed
36 36 35 34 30 31 29 30 16 7 8 16 16 36 34 32 33 32 30 27 26 24 24 24 25 26 27 29 29 30 31 34 36 36 35 36 38 41
35 36 34 32 31 35 27 32 27 18 7 23 27 23 33 32 32 31 29 27 28 26 25 26 26 27 29 30 29 29 29 33 36 38 38 39 38 36
37 36 38 35 32 31 30 34 29 26 8 9 25 27 23 29 33 32 29 27 25 19 24 24 26 28 31 29 31 33 35 38 40 40 40 42 40 33
33 37 37 34 34 27 31 24 21 31 19 10 15 21 20 23 27 26 25 27 22 24 22 21 28 31 32 34 35 36 35 36 37 38 37 29 22 19
33 36 36 37 35 28 23 27 27 18 26 18 10 13 9 12 20 24 19 18 16 19 24 27 31 32 32 33 32 27 23 25 24 16 13 11 9 9
33 37 37 39 35 31 29 26 23 20 15 15 15 16 16 15 21 20 19 19 18 16 19 18 19 17 12 11 12 10 7 3 2 2 3 5 7 7
30 31 34 35 38 35 29 26 20 20 18 17 11 9 9 17 20 20 18 17 11 13 12 11 9 7 4 3 2 2 1 1 1 1 2 2 3 3
27 28 26 28 27 26 22 20 20 25 21 14 11 17 22 20 22 19 16 10 5 11 15 10 8 4 4 2 2 3 4 4 4 4 3 3 4 5
21 22 22 22 20 19 19 19 22 23 25 27 21 23 18 20 18 17 15 11 6 10 13 8 6 8 5 7 5 3 2 2 2 2 3 5 8 7
11 13 16 16 17 19 20 17 13 14 18 22 22 19 16 17 16 14 14 12 10 5 8 6 8 6 7 5 5 3 4 6 4 3 5 7 9 10
6 7 11 14 17 21 23 22 20 18 14 14 14 12 10 9 10 12 13 16 4 2 3 5 6 6 5 7 8 4 4 5 5 4 5 7 10 12
17 14 10 11 13 17 22 27 26 22 22 22 21 19 16 16 12 8 9 12 9 4 4 4 8 6 3 6 6 3 4 3 1 2 3 6 8 13
26 25 19 15 16 17 20 21 26 24 23 23 23 22 21 20 19 16 12 6 10 9 6 6 6 6 4 4 4 3 2 2 3 2 0 3 10 14
28 29 32 32 30 28 28 28 26 25 24 25 25 22 20 20 21 20 20 21 19 17 11 4 7 4 2 3 4 6 6 6 4 2 5 11 16 19
32 30 32 33 33 31 27 25 24 25 24 25 23 24 21 16 15 16 18 19 19 19 16 14 11 7 6 4 3 5 2 3 8 13 15 18 20 20
29 30 32 32 31 30 27 25 25 24 25 25 22 19 18 18 17 15 16 15 18 16 14 13 14 9 5 4 5 5 7 6 14 15 17 19 19 19
27 26 27 27 28 26 25 24 22 21 23 20 20 18 17 17 16 15 16 16 18 15 13 12 12 10 10 6 6 8 11 13 13 16 22 21 21 22
27 23 21 20 21 21 21 20 20 19 18 17 17 17 16 16 15 14 12 14 16 15 16 15 15 9 6 5 6 10 14 15 13 16 18 20 18 25
24 21 20 19 19 18 19 18 19 17 15 17 16 15 14 14 13 14 12 12 13 13 13 11 13 14 4 2 5 9 15 17 16 18 20 20 20 26
22 19 19 17 16 15 15 15 15 15 15 15 16 15 15 14 14 13 12 12 9 8 9 11 14 13 8 3 4 8 9 14 19 20 21 20 22 24
18 19 18 17 16 16 16 15 15 15 15 15 15 15 13 13 13 12 11 11 10 8 8 9 11 10 7 2 5 10 15 13 14 17 21 22 19 21
16 16 15 15 14 13 13 11 12 12 12 13 13 12 11 11 12 11 11 12 11 10 8 10 11 12 11 9 9 14 15 15 13 17 16 16 19 13
14 13 12 11 11 10 10 9 10 10 9 9 9 9 8 10 10 9 10 10 9 10 10 13 13 13 10 9 10 15 13 13 20 19 23 20 21 23

GFSNE_925_spd_105.txt.gz
Wind_Speed
34 33 33 30 33 31 25 26 17 7 9 16 16 39 39 38 36 34 33 31 30 29 29 27 26 26 26 28 29 30 30 31 32 31 32 33 32 33
35 34 33 31 34 34 32 29 24 14 5 22 31 25 37 40 36 35 34 32 31 30 29 26 26 25 26 28 28 30 30 32 34 35 35 35 35 34
31 33 35 32 33 33 35 33 27 26 7 10 26 29 25 36 39 35 32 31 31 28 25 26 26 26 27 26 28 31 31 34 34 35 35 36 37 36
35 35 38 38 35 35 32 33 33 31 19 7 15 24 25 29 35 35 31 27 28 26 27 27 25 26 28 27 27 30 31 32 33 33 31 33 33 30
31 33 37 36 35 35 33 31 31 28 28 18 12 20 18 20 21 20 18 18 18 21 17 24 22 23 25 29 32 31 30 28 28 27 24 16 13 12
34 38 39 39 38 36 34 31 30 28 26 23 20 19 18 12 16 18 9 10 15 15 18 18 20 22 23 22 21 20 18 17 13 9 7 6 7 7
26 29 32 32 38 42 39 33 33 28 24 21 15 11 13 14 15 14 17 19 16 17 14 12 11 9 7 8 7 6 5 5 5 4 3 2 2 1
24 27 30 35 41 44 42 40 36 30 23 17 16 13 20 22 22 23 23 13 5 17 17 14 12 11 10 7 7 7 7 6 5 5 4 2 2 2
5 22 25 23 35 33 35 33 31 31 28 28 19 20 22 29 27 25 24 17 11 15 20 11 11 11 9 8 8 7 6 5 4 5 6 7 8 8
9 8 22 25 28 30 28 26 14 13 17 22 25 25 25 22 22 27 28 19 13 13 16 7 14 9 10 9 6 6 7 6 6 6 6 6 6 7
11 8 7 9 13 15 16 16 14 11 7 12 17 17 16 18 18 20 22 23 5 5 9 7 11 11 10 9 11 9 7 7 5 5 4 4 7 9
18 15 12 8 7 11 15 21 22 17 19 20 21 20 15 13 11 10 14 15 12 5 6 6 15 9 5 9 8 6 6 4 2 1 0 2 5 12
27 27 25 15 10 12 16 19 24 22 22 23 25 23 22 21 20 15 12 10 13 10 10 8 8 7 5 7 6 6 5 3 4 3 2 4 9 14
28 29 31 33 34 31 29 30 27 25 25 26 26 24 28 29 28 26 24 22 21 20 13 7 8 6 7 6 6 9 9 7 4 1 4 8 12 14
29 28 30 34 33 32 28 27 26 26 27 29 25 24 24 23 25 27 27 26 26 22 17 14 11 9 7 8 7 5 4 1 4 6 9 11 14 16
29 32 34 33 33 32 29 29 28 27 28 26 25 23 20 17 19 19 21 20 23 21 18 16 12 8 12 10 10 9 6 1 7 9 12 14 15 17
25 26 30 29 28 28 29 28 26 26 25 22 21 21 20 20 18 14 13 14 17 16 17 15 14 12 12 10 10 7 6 8 8 10 14 17 19 18
27 24 23 24 23 23 23 24 24 22 20 19 19 19 18 17 16 16 15 16 17 14 14 14 11 7 7 9 9 10 11 12 11 13 15 17 16 21
26 22 20 20 20 20 20 21 21 19 17 19 18 17 16 15 14 14 13 14 13 12 11 11 11 12 4 2 4 11 13 11 14 17 14 15 17 21
23 21 19 18 18 18 18 18 18 17 17 17 17 15 15 14 14 13 12 13 11 9 9 10 13 10 4 1 3 3 9 11 13 15 18 19 20 16
19 19 18 18 18 18 17 17 17 17 16 16 15 14 13 13 14 12 12 11 10 8 9 8 7 6 4 1 3 6 9 8 9 14 19 20 16 17
18 18 16 15 14 14 13 13 13 13 14 14 13 12 12 12 12 11 11 10 10 8 6 6 6 6 7 6 5 8 10 12 14 15 13 12 13 9
14 14 13 12 12 11 12 12 12 11 11 11 10 10 9 10 10 9 9 8 7 7 7 8 8 9 7 7 7 9 8 16 20 22 23 16 19 19